Location: Centerville
(32.8776°N, 96.6203°W)
Time: 10:18:57
(UTC+00:00)

Cosmos 2237 - Pass Details

Date: 26 October 2021
Orbit: 845 x 856 km, 70.8° (Epoch: 08 December)

Event Time Altitude Azimuth Distance (km) Brightness Sun altitude
Exits shadow 09:02:38 13° 62° (ENE) 2,298 7.0 -45.8°
Drops below altitude 10° 09:04:30 10° 81° (E) 2,483 7.2 -45.5°
Sets 09:08:30 0° 109° (ESE) 3,412 7.9 -44.6°
